Regional Weather Roundup
Issued by NWS Bismarck, ND

Home | Current Version | Previous Version | Text Only | Print | Product List | Glossary On
Versions: 1 2 3 4 5 6 7 8 9 10 11 12 13 14 15 16 17 18 19 20 21 22 23 24 25 26 27 28 29 30 31 32 33 34 35 36 37 38 39 40 41 42 43 44 45 46 47 48 49 50
000
ASUS43 KBIS 270810
RWRBIS

NWR BROADCAST TEXT
NATIONAL WEATHER SERVICE BISMARCK ND
300 AM CDT FRI MAY 27 2016

NOTE: "FAIR" INDICATES FEW OR NO CLOUDS BELOW 12,000 FEET WITH NO
SIGNIFICANT WEATHER AND/OR OBSTRUCTIONS TO VISIBILITY.


CITY           SKY/WX    TMP DP  RH WIND       PRES   REMARKS
WILLISTON      CLEAR     50  48  93 N9        29.86S
MINOT          CLOUDY    57  54  89 SW5       29.82S
MINOT AFB      CLOUDY    54  53  96 NW6       29.82R
BISMARCK       CLEAR     47  47 100 CALM      29.83F
DICKINSON      CLEAR     40  38  93 S6        29.84R
GARRISON         N/A     52  50  93 NW7       29.84R
HETTINGER ARPT CLEAR     33  32  96 NW3       29.86F
JAMESTOWN      PTCLDY    53  52  96 N5        29.80S
BEACH          FAIR      43  43 100 S7        29.89R
CARRINGTON     FAIR      52  48  87 NW6       29.82F
HAZEN          CLOUDY    48  48 100 NW5       29.87R
LINTON           N/A     46  46 100 CALM        N/A
MANDAN         FAIR      46  46 100 NW5       29.84S
OAKES            N/A    N/A N/A N/A MISG        N/A
RUGBY          PTSUNNY   55  55 100 NW5       29.82S
STANLEY        FAIR      52  52 100 NE6       29.87S
WATFORD CITY   FAIR      45  45 100 CALM      29.86R
$$

CITY           SKY/WX    TMP DP  RH WIND       PRES   REMARKS
GRAND FORKS    CLOUDY    54  52  93 NW3       29.80R
GRAND FORKS AF CLOUDY    52  52 100 SE3       29.80S
DEVILS LAKE    CLEAR     52  51  97 SW6       29.82S
FARGO          CLOUDY    58  55  90 E9        29.79F
CAVALIER       FAIR      54  54 100 SW3       29.80R
GRAFTON        PTSUNNY   55  55 100 W6        29.81R
GWINNER        FAIR      57  54  88 NW3       29.77F
LANGDON        CLOUDY    52  52 100 SW8       29.81S
ROLLA          CLOUDY    54  54 100 NW8       29.82S
WALHALLA       FAIR      54  54 100 CALM      29.80S
$$

CITY           SKY/WX    TMP DP  RH WIND       PRES   REMARKS
ABERDEEN       CLOUDY    60  53  77 W8        29.76F
MOBRIDGE       CLEAR     53  47  79 NW3       29.79S
BUFFALO          N/A     48  42  80 W5        29.80F
RAPID CITY     PTCLDY    50  42  74 N12       29.87S
GLASGOW        MOCLDY    50  47  89 N8        29.86F
SIDNEY         CLEAR     50  47  89 N8        29.84S
WOLF POINT     MOCLDY    51  48  89 NE6       29.86F
GLENDIVE       CLEAR     46  45  93 CALM      29.86R
MILES CITY     CLOUDY    51  47  86 SW6       29.86S
BAKER          CLEAR     43  40  89 NE3       29.86S
$$

CITY           SKY/WX    TMP DP  RH WIND       PRES   REMARKS
BILLINGS       CLEAR     49  44  83 SW3       29.91F
GREAT FALLS    PTCLDY    46  42  86 S6        29.90S
REGINA         MOCLDY    52  50  93 NW7       29.88S
ESTEVAN        MOCLDY    52  50  93 W12       29.84F
$$





USA.gov is the U.S. government's official web portal to all federal, state and local government web resources and services.